Regional Weather Roundup
Issued by NWS Little Rock, AR

Home | Current Version | Previous Version | Text Only | Print | Product List | Glossary On
Versions: 1 2 3 4 5 6 7 8 9 10 11 12 13 14 15 16 17 18 19 20 21 22 23 24 25 26 27 28 29 30 31 32 33 34 35 36 37 38 39 40 41 42 43 44 45 46 47 48 49 50
000
ASUS44 KLZK 101405
RWRLZK

WEATHER ROUNDUP FOR ARKANSAS
NATIONAL WEATHER SERVICE LITTLE ROCK AR
800 AM CST SAT DEC 10 2016

NOTE: "FAIR" INDICATES FEW OR NO CLOUDS BELOW 12,000 FEET WITH NO
SIGNIFICANT WEATHER AND/OR OBSTRUCTIONS TO VISIBILITY.

ARZ001-003-010-029-101500-
NORTHWEST ARKANSAS

CITY           SKY/WX    TMP DP  RH WIND       PRES   REMARKS
FAYETTEVILLE   MOCLDY    31  17  56 SW3       30.44F
FORT SMITH     CLOUDY    34  21  59 E7        30.49F WCI  28
HARRISON       CLOUDY    30  20  66 SE8       30.45F WCI  22
BENTONVILLE    CLOUDY    34  16  47 S6        30.43F WCI  29
ROGERS         CLOUDY    34  17  50 SE7       30.43S WCI  28
SILOAM SPGS    CLOUDY    34  18  51 S5        30.42F WCI  30
HIGHFILL       CLOUDY    34  18  52 S6        30.42F WCI  29
SPRINGDALE     CLOUDY    34  18  51 SE5       30.44F WCI  30
$$

ARZ004-005-016-101500-
NORTH CENTRAL ARKANSAS

CITY           SKY/WX    TMP DP  RH WIND       PRES   REMARKS
BATESVILLE     PTCLDY    23  19  86 E5        30.57F WCI  17
FLIPPIN        CLOUDY    28  19  69 CALM      30.48F
MTN HOME       CLOUDY    26  19  74 S3        30.49F
$$

ARZ040-041-101500-
WEST CENTRAL ARKANSAS

CITY           SKY/WX    TMP DP  RH WIND       PRES   REMARKS
MENA           CLOUDY    36  28  75 CALM      30.50R
MOUNT IDA      CLOUDY    34  22  61 SE3       30.49S
$$

ARZ009-017-025-026-028-101500-
NORTHEAST ARKANSAS

CITY           SKY/WX    TMP DP  RH WIND       PRES   REMARKS
CORNING        FAIR      27  27 100 SE6       30.60F WCI  20
JONESBORO      CLEAR     24  21  88 E5        30.59F WCI  18
NEWPORT        CLEAR     27  26  96 SE5       30.59F WCI  22
WALNUT RIDGE   CLEAR     27  21  80 SE6       30.58F WCI  20
BLYTHEVILLE    CLEAR     26  20  77 E6        30.62F WCI  19
$$

ARZ022-023-033-042-044-101500-
CENTRAL ARKANSAS

CITY           SKY/WX    TMP DP  RH WIND       PRES   REMARKS
LITTLE ROCK    CLOUDY    29  26  89 SE3       30.58F
N LITTLE ROCK    N/A     29  23  78 S5        30.60F WCI  24
JACKSONVILLE   CLOUDY    28  24  84 NE1       30.56F
SEARCY         CLOUDY    25  24  96 CALM      30.60F
HOT SPRINGS    CLOUDY    33  22  63 E7        30.55F WCI  27
RUSSELLVILLE   CLOUDY    30  22  72 VRB6      30.54F WCI  24
CLINTON        CLOUDY    27  23  86 CALM      30.56S
$$

ARZ036-101500-
EAST ARKANSAS

CITY           SKY/WX    TMP DP  RH WIND       PRES   REMARKS
WEST MEMPHIS   CLEAR     26  22  84 CALM      30.60F
$$

ARZ050-053-066-070-073-101500-
SOUTHWEST ARKANSAS

CITY           SKY/WX    TMP DP  RH WIND       PRES   REMARKS
ARKADELPHIA    CLOUDY    33  25  72 E5        30.58F WCI  29
CAMDEN         CLOUDY    32  23  69 CALM      30.59S
TEXARKANA      CLOUDY    35  26  69 SE6       30.54S WCI  30
EL DORADO      CLOUDY    33  24  69 E5        30.57F WCI  29
DE QUEEN       CLOUDY    35  27  72 E5        30.52S WCI  31
$$

ARZ056-057-069-101500-
SOUTHEAST ARKANSAS

CITY           SKY/WX    TMP DP  RH WIND       PRES   REMARKS
PINE BLUFF     FLURRIES  30  26  85 E6        30.58F WCI  24
STUTTGART      CLOUDY    28  21  74 SE6       30.59F WCI  22
MONTICELLO     CLOUDY    29  24  82 E3        30.59F

$$





USA.gov is the U.S. government's official web portal to all federal, state and local government web resources and services.